Tracking 19164 objects as of 20-May-2018
HD Live streaming from Space Station
objects crossing your sky now

COSMOS 1067

Track COSMOS 1067 now!
10-day predictions
COSMOS 1067 is classified as:


NORAD ID: 11168
Int'l Code: 1978-122A
Perigee: 1,163.3 km
Apogee: 1,219.3 km
Inclination: 83.0 °
Period: 109.1 minutes
Semi major axis: 7562 km
RCS: 3.476 m2 (large)
Launch date: December 26, 1978
Source: Commonwealth of Independent States (former USSR) (CIS)
Launch site: PLESETSK MISSILE AND SPACE COMPLEX (PKMTR)
aabbcc
Your satellite tracking list
Your tracking list is empty




NASA's NSSDC Master Catalog

Two Line Element Set (TLE):
1 11168U 78122A   18139.93486413 +.00000014 +00000-0 +21729-5 0  9998
2 11168 082.9748 034.2855 0037071 114.3069 310.9088 13.20149236881812
Source of the keplerian elements: AFSPC